Flight Track Log - Related Links

Times and Time Zones

All times are in EDT time to prevent confusion due to time zone crossing. See the EJA102 flight status page for this flight to view local times or setup timezone preferences in your user account.

Time Position Orientation Groundspeed Altitude Reporting Facility
EDT Latitude Longitude Course Direction KTS MPH feet Rate Location/Type
09:33AM 38.9667 -77.5000 360° North 184 212 2,600  Level Potomac TRACON
09:34AM 39.0167 -77.5000 360° North 197 227 4,800 2,504 Climbing Potomac TRACON
09:35AM 39.0667 -77.4833 15° North 222 255 7,400 2,083 Climbing Potomac TRACON
09:36AM 39.1333 -77.4667 11° North 261 300 9,000 706 Climbing Potomac TRACON
09:38AM 39.2131 -77.3597 46° Northeast 321 369 9,200 701 Climbing Washington Center
09:39AM 39.2519 -77.2614 63° Northeast 314 361 10,800 1,525 Climbing Washington Center
09:40AM 39.2931 -77.1550 63° Northeast 314 361 12,300 1,587 Climbing Washington Center
09:41AM 39.3278 -77.0322 70° East 338 389 14,000 1,686 Climbing Washington Center
09:42AM 39.2981 -76.9003 106° East 334 384 15,700 1,488 Climbing Washington Center
09:43AM 39.2597 -76.7711 111° Southeast 339 390 17,000 1,017 Climbing Washington Center
09:44AM 39.2172 -76.6392 113° Southeast 366 421 17,700 1,311 Climbing Washington Center
09:45AM 39.1747 -76.5072 113° Southeast 388 447 19,600 1,918 Climbing Washington Center
09:46AM 39.1381 -76.3836 111° Southeast 388 447 21,600 1,714 Climbing Washington Center
09:47AM 39.0992 -76.2656 113° Southeast 376 433 23,000 706 Climbing Washington Center
09:48AM 39.0622 -76.1342 110° East 370 426 23,000  Level Washington Center
09:49AM 39.0461 -75.9844 98° East 406 467 23,000  Level Washington Center
09:50AM 39.0528 -75.8242 87° East 423 487 23,000  Level Washington Center
09:51AM 39.0592 -75.6583 87° East 442 509 23,000  Level Washington Center
09:52AM 39.0675 -75.4847 86° East 465 535 23,000  Level Washington Center
09:53AM 39.0756 -75.3136 86° East 475 547 23,000  Level Washington Center
09:54AM 39.0897 -75.1422 84° East 480 552 23,000  Level Washington Center
09:55AM 39.1453 -75.0028 63° Northeast 473 544 23,000  Level Washington Center
09:56AM 39.2111 -74.8522 61° Northeast 478 550 23,000  Level Washington Center
09:57AM 39.2767 -74.7042 60° Northeast 473 544 23,000 -75 Level Washington Center
09:58AM 39.3869 -74.4561 60° Northeast 491 565 22,800 -525 Descending New York Center
09:59AM 39.4564 -74.2958 61° Northeast 471 542 21,600 -893 Descending New York Center
10:00AM 39.5189 -74.1564 60° Northeast 457 526 21,000 -397 Descending New York Center
10:01AM 39.5978 -74.0253 52° Northeast 452 520 20,800 -893 Descending New York Center
10:02AM 39.6783 -73.8969 51° Northeast 452 520 19,200 -1,538 Descending New York Center
10:03AM 39.7608 -73.7711 50° Northeast 459 528 17,800 -1,475 Descending New York Center
10:04AM 39.8389 -73.6472 51° Northeast 449 517 16,300 -1,525 Descending New York Center
10:05AM 39.9147 -73.5286 50° Northeast 439 505 14,700 -1,488 Descending New York Center
10:06AM 40.0006 -73.4292 42° Northeast 422 486 13,300 -843 Descending New York Center
10:07AM 40.0861 -73.3267 42° Northeast 408 470 13,000 -836 Descending New York Center
10:09AM 40.2289 -73.1575 42° Northeast 412 474 11,000 -1,407 Descending Boston Center
10:10AM 40.3000 -73.0714 43° Northeast 390 449 9,200 -1,008 Descending Boston Center
10:11AM 40.3631 -72.9956 42° Northeast 345 397 9,000 -322 Descending Boston Center
10:14AM 40.5167 -72.8167 41° Northeast 304 350 8,100 -559 Descending New York TRACON
10:15AM 40.5833 -72.7333 43° Northeast 292 336 7,100 -1,200 Descending New York TRACON
10:16AM 40.6333 -72.6667 45° Northeast 292 336 5,700 -1,300 Descending New York TRACON
10:17AM 40.7000 -72.6000 37° Northeast 288 331 4,500 -800 Descending New York TRACON
10:18AM 40.7500 -72.5333 45° Northeast 269 310 4,100 -400 Descending New York TRACON
10:19AM 40.8000 -72.4667 45° Northeast 217 250 3,700 -850 Descending New York TRACON
10:20AM 40.8333 -72.4167 49° Northeast 207 238 2,400 -800 Descending New York TRACON
10:21AM 40.8667 -72.3667 49° Northeast 183 211 2,100 -300 Descending New York TRACON

Login

Don't have an account? Register now (free) for customized features, flight alerts, and more!